When you browse on this site, cookies collect data to enhance your experience and personalize the content and advertising you see.
Visit our Privacy Policy to learn more. By continuing to use the site, you agree to this use of cookies and data.
  • In Hungary
  • List of Countries
  • For 7 days
  • Water Temperature
  • Weather Map
  • News
  • Weather Widgets
  • user-avatar
    Login

    Hourly Weather Kadur

    Today, 22 November, Friday

    Time Temperature Precipitation Wind Pressure Humidity
    00:00 +20°C° 0 mm 2 mps 694 mmHg 91%
    01:00 +20°C° 0 mm 2 mps 693 mmHg 92%
    02:00 +19°C° 0 mm 2 mps 693 mmHg 94%
    03:00 +19°C° 0 mm 2 mps 693 mmHg 95%
    04:00 +19°C° 0 mm 2 mps 693 mmHg 96%
    05:00 +20°C° 0 mm 3 mps 693 mmHg 99%
    06:00 +21°C° 0 mm 3 mps 694 mmHg 96%
    07:00 +21°C° 0 mm 3 mps 694 mmHg 92%
    08:00 +22°C° 0 mm 4 mps 695 mmHg 89%
    09:00 +23°C° 0 mm 4 mps 695 mmHg 83%
    10:00 +25°C° 0 mm 4 mps 695 mmHg 77%
    11:00 +26°C° 0 mm 4 mps 695 mmHg 70%
    12:00 +27°C° 0 mm 4 mps 695 mmHg 68%
    13:00 +27°C° 0 mm 4 mps 694 mmHg 65%
    14:00 +28°C° 0 mm 3 mps 693 mmHg 63%
    15:00 +27°C° 0 mm 3 mps 693 mmHg 67%
    16:00 +27°C° 0 mm 3 mps 693 mmHg 71%
    17:00 +26°C° 0 mm 2 mps 693 mmHg 74%
    18:00 +25°C° 0 mm 3 mps 693 mmHg 77%
    19:00 +24°C° 0 mm 3 mps 694 mmHg 81%
    20:00 +22°C° 0 mm 3 mps 694 mmHg 84%
    21:00 +21°C° 0 mm 3 mps 694 mmHg 85%
    22:00 +21°C° 0 mm 3 mps 694 mmHg 86%
    23:00 +20°C° 0 mm 2 mps 694 mmHg 87%

    Tomorrow, 23 November, Saturday

    Time Temperature Precipitation Wind Pressure Humidity
    00:00 +20°C° 0 mm 2 mps 694 mmHg 88%
    01:00 +19°C° 0 mm 2 mps 693 mmHg 89%
    02:00 +20°C° 0 mm 1 mps 693 mmHg 90%
    03:00 +19°C° 0 mm 1 mps 693 mmHg 91%
    04:00 +19°C° 0 mm 1 mps 693 mmHg 91%
    05:00 +19°C° 0 mm 1 mps 693 mmHg 91%
    06:00 +19°C° 0 mm 2 mps 694 mmHg 86%
    07:00 +20°C° 0 mm 2 mps 694 mmHg 81%
    08:00 +21°C° 0 mm 3 mps 695 mmHg 75%
    09:00 +22°C° 0 mm 3 mps 695 mmHg 70%
    10:00 +25°C° 0 mm 4 mps 695 mmHg 64%
    11:00 +27°C° 0 mm 4 mps 695 mmHg 59%
    12:00 +27°C° 0 mm 4 mps 694 mmHg 56%
    13:00 +28°C° 0 mm 4 mps 694 mmHg 54%
    14:00 +29°C° 0 mm 4 mps 693 mmHg 52%
    15:00 +28°C° 0 mm 3 mps 693 mmHg 56%
    16:00 +26°C° 0 mm 3 mps 692 mmHg 61%
    17:00 +25°C° 0 mm 3 mps 692 mmHg 65%
    18:00 +24°C° 0 mm 3 mps 693 mmHg 68%
    19:00 +22°C° 0 mm 3 mps 693 mmHg 70%
    20:00 +21°C° 0 mm 2 mps 694 mmHg 73%
    21:00 +20°C° 0 mm 2 mps 693 mmHg 77%
    22:00 +20°C° 0 mm 2 mps 693 mmHg 81%
    23:00 +21°C° 0 mm 1 mps 693 mmHg 85%

    Day after tomorrow, 24 November, Sunday

    Time Temperature Precipitation Wind Pressure Humidity
    00:00 +20°C° 0 mm 1 mps 693 mmHg 87%
    01:00 +19°C° 0 mm 2 mps 692 mmHg 88%
    02:00 +19°C° 0 mm 2 mps 692 mmHg 90%
    03:00 +18°C° 0 mm 2 mps 692 mmHg 91%
    04:00 +18°C° 0 mm 2 mps 692 mmHg 92%
    05:00 +18°C° 0 mm 2 mps 692 mmHg 93%
    06:00 +19°C° 0 mm 2 mps 693 mmHg 88%
    07:00 +20°C° 0 mm 2 mps 694 mmHg 83%
    08:00 +22°C° 0 mm 3 mps 695 mmHg 78%
    09:00 +24°C° 0 mm 3 mps 694 mmHg 72%
    10:00 +26°C° 0 mm 4 mps 694 mmHg 67%
    11:00 +27°C° 0 mm 4 mps 694 mmHg 61%
    12:00 +28°C° 0 mm 4 mps 694 mmHg 59%
    13:00 +28°C° 0 mm 4 mps 693 mmHg 56%
    14:00 +29°C° 0 mm 4 mps 692 mmHg 54%
    15:00 +28°C° 0 mm 3 mps 692 mmHg 58%
    16:00 +27°C° 0 mm 3 mps 692 mmHg 62%
    17:00 +26°C° 0 mm 2 mps 692 mmHg 66%
    18:00 +25°C° 0 mm 2 mps 692 mmHg 68%
    19:00 +24°C° 0 mm 2 mps 693 mmHg 70%
    20:00 +21°C° 0 mm 2 mps 693 mmHg 72%
    21:00 +21°C° 0 mm 2 mps 693 mmHg 74%
    22:00 +20°C° 0 mm 2 mps 693 mmHg 76%
    23:00 +20°C° 0 mm 2 mps 693 mmHg 78%

    25 November, Monday

    Time Temperature Precipitation Wind Pressure Humidity
    00:00 +19°C° 0 mm 2 mps 693 mmHg 80%
    01:00 +19°C° 0 mm 2 mps 692 mmHg 82%
    02:00 +19°C° 0 mm 2 mps 692 mmHg 84%
    03:00 +19°C° 0 mm 1 mps 692 mmHg 86%
    04:00 +19°C° 0 mm 1 mps 692 mmHg 88%
    05:00 +19°C° 0 mm 1 mps 692 mmHg 91%
    06:00 +19°C° 0 mm 2 mps 693 mmHg 85%
    07:00 +20°C° 0 mm 2 mps 693 mmHg 80%
    08:00 +21°C° 0 mm 3 mps 694 mmHg 75%
    09:00 +24°C° 0 mm 3 mps 694 mmHg 69%
    10:00 +25°C° 0 mm 4 mps 694 mmHg 63%
    11:00 +27°C° 0 mm 4 mps 694 mmHg 57%
    12:00 +28°C° 0 mm 4 mps 693 mmHg 55%
    13:00 +28°C° 0 mm 4 mps 693 mmHg 54%
    14:00 +29°C° 0 mm 4 mps 692 mmHg 52%
    15:00 +28°C° 0 mm 3 mps 692 mmHg 57%
    16:00 +27°C° 0 mm 3 mps 692 mmHg 62%
    17:00 +26°C° 0 mm 2 mps 692 mmHg 66%
    18:00 +25°C° 0 mm 2 mps 692 mmHg 72%
    19:00 +24°C° 0 mm 2 mps 692 mmHg 77%
    20:00 +23°C° 0 mm 2 mps 693 mmHg 83%
    21:00 +21°C° 0 mm 2 mps 693 mmHg 85%
    22:00 +21°C° 0 mm 2 mps 693 mmHg 87%
    23:00 +21°C° 0 mm 2 mps 693 mmHg 89%

    26 November, Tuesday

    Time Temperature Precipitation Wind Pressure Humidity
    00:00 +20°C° 0 mm 2 mps 693 mmHg 91%
    01:00 +20°C° 0 mm 2 mps 692 mmHg 92%
    02:00 +20°C° 0 mm 2 mps 692 mmHg 94%
    03:00 +20°C° 0 mm 2 mps 692 mmHg 94%
    04:00 +19°C° 0 mm 2 mps 692 mmHg 95%
    05:00 +19°C° 0 mm 2 mps 692 mmHg 96%
    06:00 +20°C° 0 mm 2 mps 693 mmHg 92%
    07:00 +20°C° 0 mm 3 mps 693 mmHg 88%
    08:00 +21°C° 0 mm 3 mps 694 mmHg 84%
    09:00 +22°C° 0 mm 4 mps 694 mmHg 76%
    10:00 +25°C° 0 mm 4 mps 694 mmHg 69%
    11:00 +26°C° 0 mm 4 mps 693 mmHg 62%
    12:00 +27°C° 0 mm 4 mps 693 mmHg 59%
    13:00 +28°C° 0 mm 4 mps 692 mmHg 56%
    14:00 +28°C° 0 mm 4 mps 692 mmHg 54%
    15:00 +27°C° 0 mm 4 mps 692 mmHg 57%
    16:00 +26°C° 0 mm 3 mps 691 mmHg 61%
    17:00 +25°C° 0 mm 3 mps 691 mmHg 64%
    18:00 +24°C° 0 mm 3 mps 692 mmHg 67%
    19:00 +22°C° 0 mm 3 mps 692 mmHg 70%
    20:00 +21°C° 0 mm 3 mps 693 mmHg 73%
    21:00 +20°C° 0 mm 3 mps 693 mmHg 76%
    22:00 +20°C° 0 mm 3 mps 693 mmHg 79%
    23:00 +19°C° 0 mm 2 mps 693 mmHg 82%

    27 November, Wednesday

    Time Temperature Precipitation Wind Pressure Humidity
    00:00 +19°C° 0 mm 2 mps 692 mmHg 85%
    01:00 +19°C° 0 mm 2 mps 692 mmHg 88%
    02:00 +18°C° 0 mm 2 mps 691 mmHg 91%
    03:00 +18°C° 0 mm 2 mps 691 mmHg 92%
    04:00 +18°C° 0 mm 2 mps 692 mmHg 94%
    05:00 +18°C° 0 mm 2 mps 692 mmHg 95%
    06:00 +19°C° 0 mm 2 mps 692 mmHg 92%
    07:00 +20°C° 0 mm 3 mps 693 mmHg 89%
    08:00 +21°C° 0 mm 3 mps 694 mmHg 86%
    09:00 +22°C° 0 mm 3 mps 693 mmHg 83%
    10:00 +23°C° 0 mm 4 mps 693 mmHg 80%
    11:00 +25°C° 0 mm 4 mps 693 mmHg 77%
    12:00 +25°C° 0.1 mm 4 mps 693 mmHg 75%
    13:00 +26°C° 0.1 mm 4 mps 692 mmHg 73%
    14:00 +26°C° 0.1 mm 4 mps 692 mmHg 71%
    15:00 +26°C° 0.1 mm 3 mps 692 mmHg 73%
    16:00 +25°C° 0.1 mm 3 mps 692 mmHg 76%
    17:00 +25°C° 0.1 mm 3 mps 692 mmHg 79%
    18:00 +24°C° 0.1 mm 3 mps 692 mmHg 81%
    19:00 +22°C° 0.1 mm 4 mps 693 mmHg 83%
    20:00 +22°C° 0.1 mm 4 mps 693 mmHg 85%
    21:00 +21°C° 0 mm 4 mps 693 mmHg 86%
    22:00 +21°C° 0 mm 4 mps 693 mmHg 88%
    23:00 +20°C° 0 mm 4 mps 693 mmHg 89%
    Show more